#timestamp,LO_Frequency,Hit,StdDev 
1598139335.8,286047003.4,P
1598139355.7,286047004.2,P
1598139375.5,286047003.7,P
1598139395.3,286047003.5,Y
1598139415.2,286046998.3,P
1598139435.0,286047000.6,N
1598139435.9,286047000.6,N
1598139455.8,286047000.5,N
1598139475.6,286046998.2,N
1598139495.4,286046998.1,N
1598139515.3,286046998.7,N
1598139535.1,286046998.7,N
1598139555.8,286046999.2,N
1598139575.7,286046998.4,N
1598139595.5,286046996.6,N
1598139615.3,286046996.7,N
1598139635.2,286046997.6,N
1598139655.0,286046997.4,N
1598139655.9,286046997.4,N
1598139675.8,286046997.8,N
1598139695.6,286046997.5,N
1598139715.4,286046996.8,N
1598139735.3,286046997.1,N
1598139755.1,286046999.2,N
1598139775.9,286046999.2,N
1598139795.7,286046999.6,N
1598139815.5,286046996.8,N
1598139835.4,286046996.5,N
1598139855.2,286046998.3,N
1598139875.0,286046998.1,N
1598139875.9,286046998.1,N
1598139895.8,286047000.1,N
1598139915.6,286047002.8,N
1598139935.4,286047000.4,N
1598139955.3,286047000.6,N
1598139975.1,286047002.3,N
1598139995.9,286047000.8,N
1598140015.7,286047000.4,N
1598140035.5,286047001.0,N
1598140055.4,286047002.4,N
1598140075.2,286047002.8,N
1598140095.0,286047000.7,N
1598140095.9,286047000.7,N
1598140115.8,286047001.1,N
1598140135.6,286047000.1,N
1598140155.5,286047001.6,N
1598140175.3,286046999.7,N
1598140195.1,286047001.1,N
1598140215.9,286046998.9,N
1598140235.7,286046999.3,N
1598140255.5,286046999.1,N
1598140275.4,286046996.9,N
1598140295.2,286046996.5,N
1598140315.1,286046998.7,N
1598140316.0,286046998.7,N
1598140335.8,286046996.9,N
1598140355.6,286046997.0,N
1598140375.5,286046999.0,N
1598140395.3,286046996.5,N
1598140415.1,286046998.6,N
1598140435.9,286047000.7,N
1598140455.7,286047000.8,N
1598140475.6,286046999.6,N
1598140495.4,286046996.5,N
1598140515.2,286046996.6,N
1598140535.1,286047001.1,N
1598140536.0,286047001.1,N
1598140555.8,286046998.1,N
1598140575.6,286047001.2,N
1598140595.5,286046998.3,N
1598140615.3,286047001.2,N
1598140635.2,286046998.4,N
1598140655.9,286046998.1,N
1598140675.7,286046998.2,N
1598140695.6,286046999.0,N
1598140715.4,286046999.2,N
1598140735.3,286046998.6,N
1598140755.1,286046998.5,N
1598140756.0,286046998.5,N
1598140775.8,286047000.0,N
1598140795.7,286047000.9,N
